Regional Weather Roundup
Issued by NWS

Home | Current Version | Previous Version | Graphics & Text | Print | Product List | Glossary On
Versions: 1 2 3 4 5 6 7 8 9 10 11 12 13 14 15 16 17 18 19 20 21 22 23 24 25 26 27 28 29 30 31 32 33 34 35 36 37 38 39 40 41 42 43 44 45 46 47 48 49 50
000
ASUS45 KSLC 011910
RWRUT

UTAH REGIONAL WEATHER ROUNDUP
NATIONAL WEATHER SERVICE SALT LAKE CITY UT
100 PM MDT SAT AUG 01 2015

UTZ001>011-023>025-012000-

NORTHERN UTAH

CITY           SKY/WX    TMP DP  RH WIND       PRES   REMARKS
BRIGHAM CITY   SUNNY     88  30  12 SW5       30.12F
HILL AFB       SUNNY     87  40  19 N6        30.16F
LOGAN          SUNNY     85  38  18 VRB3      30.14F
OGDEN          SUNNY     89  35  14 CALM      30.13F
PROVO AIRPORT  MOSUNNY   81  45  28 VRB6      30.15F
SALT LAKE CITY PTSUNNY   90  31  12 NW6       30.11F
VERNAL         SUNNY     86  36  16 SW5       30.16F
WENDOVER       MOSUNNY   90  28  11 SE7       30.13F
HEBER CITY     MOSUNNY   82  32  16 CALM      30.21F
WEST JORDAN    SUNNY     88  39  18 N5        30.15F

$$

UTZ012>022-026-027-012000-

SOUTHERN/CENTRAL UTAH

CITY           SKY/WX    TMP DP  RH WIND       PRES   REMARKS
BLANDING       CLOUDY    63  61  93 CALM      30.37F
BRYCE CANYON   CLOUDY    74  45  35 S5        30.37F
CEDAR CITY     PTSUNNY   84  40  21 VRB3      30.21F
DELTA          PTSUNNY   88  26  10 N3        30.14F
HANKSVILLE     MOSUNNY   90  54  29 S17G23    30.14F
MILFORD        CLOUDY    86  42  21 S8        30.15F
MOAB/CYNLANDS  SUNNY     89  52  28 MISG      30.11F
PRICE          MOSUNNY   86  34  15 VRB7      30.22F
ST GEORGE      PTCLDY    91  54  27 SW6       30.05F
KANAB          CLOUDY    82  54  36 S10       30.24F

$$

REGIONAL REPORTS     COLORADO/ARIZONA

CITY           SKY/WX    TMP DP  RH WIND       PRES   REMARKS
CRAIG, CO      SUNNY     88  35  15 N8        30.23F
GRAND JUNCTION MOSUNNY   88  49  25 W7        30.13F
RIFLE          SUNNY     88  45  22 VRB5      30.17F
MONTROSE       PTSUNNY   83  46  27 NW3       30.23F
CORTEZ         SUNNY     73  62  68 NE7       30.29F
PAGE, AZ       CLOUDY    85  54  34 N7        30.14F
GRAND CANYON   CLOUDY    69  58  67 NE6       30.34F
KINGMAN        LGT RAIN  78  57  48 SW15      30.14S
FLAGSTAFF      CLOUDY    70  56  61 NE9       30.36F

$$

REGIONAL REPORTS    NEVADA/IDAHO/WYOMING

CITY           SKY/WX    TMP DP  RH WIND       PRES   REMARKS
LAS VEGAS, NV  LGT RAIN  80  65  59 S9        30.01R
ELY            PTSUNNY   88  33  14 VRB6      30.25F
ELKO           SUNNY     90  23   9 VRB5      30.17F
POCATELLO, ID  MOSUNNY   89  38  16 NW6       30.15F
BURLEY         SUNNY     89  43  20 N6        30.10F
EVANSTON, WY   SUNNY     80  20  10 CALM      30.32F
ROCK SPRINGS   SUNNY     81  31  16 CALM      30.28F
KEMMERER       SUNNY    N/A N/A N/A E8        30.33F

$$


USA.gov is the U.S. government's official web portal to all federal, state and local government web resources and services.